TimeCDT,TemperatureF,Dew PointF,Humidity,Sea Level PressureIn,VisibilityMPH,Wind Direction,Wind SpeedMPH,Gust SpeedMPH,PrecipitationIn,Events,Conditions,WindDirDegrees,DateUTC
12:15 AM,64.4,62.6,94,29.67,10.0,ESE,6.9,-,N/A,Thunderstorm,Mostly Cloudy,110,2013-05-28 05:15:00
12:35 AM,64.4,62.6,94,29.70,10.0,Calm,Calm,-,N/A,,Scattered Clouds,0,2013-05-28 05:35:00
12:55 AM,62.6,62.6,100,29.68,10.0,North,4.6,-,N/A,,Scattered Clouds,10,2013-05-28 05:55:00
1:15 AM,62.6,62.6,100,29.71,10.0,North,8.1,-,N/A,,Mostly Cloudy,10,2013-05-28 06:15:00
1:35 AM,62.6,62.6,100,29.70,10.0,NNE,6.9,-,N/A,,Scattered Clouds,20,2013-05-28 06:35:00
1:55 AM,62.6,62.6,100,29.69,10.0,NNE,8.1,-,N/A,,Mostly Cloudy,20,2013-05-28 06:55:00
2:15 AM,64.4,62.6,94,29.70,10.0,North,6.9,-,N/A,,Overcast,350,2013-05-28 07:15:00
2:35 AM,64.4,62.6,94,29.70,9.0,North,9.2,-,N/A,,Overcast,10,2013-05-28 07:35:00
2:55 AM,62.6,62.6,100,29.70,8.0,NNE,10.4,-,N/A,,Scattered Clouds,20,2013-05-28 07:55:00
3:15 AM,62.6,62.6,100,29.70,4.0,NE,12.7,-,N/A,,Mostly Cloudy,40,2013-05-28 08:15:00
3:35 AM,62.6,62.6,100,29.69,4.0,NNE,8.1,-,N/A,,Scattered Clouds,30,2013-05-28 08:35:00
3:55 AM,62.6,62.6,100,29.70,3.0,NNE,8.1,-,N/A,,Mostly Cloudy,30,2013-05-28 08:55:00
4:15 AM,62.6,62.6,100,29.71,2.5,NNE,9.2,-,N/A,,Overcast,20,2013-05-28 09:15:00
4:35 AM,62.6,62.6,100,29.73,2.5,ENE,6.9,-,N/A,,Overcast,60,2013-05-28 09:35:00
4:55 AM,62.6,62.6,100,29.74,0.8,North,11.5,17.3,N/A,,Overcast,360,2013-05-28 09:55:00
5:15 AM,60.8,60.8,100,29.73,3.0,NNE,11.5,-,N/A,,Overcast,20,2013-05-28 10:15:00
5:35 AM,60.8,60.8,100,29.73,4.0,NE,8.1,-,N/A,,Overcast,50,2013-05-28 10:35:00
5:55 AM,59.0,59.0,100,29.73,3.0,NE,5.8,-,N/A,,Scattered Clouds,40,2013-05-28 10:55:00
6:15 AM,59.0,59.0,100,29.73,2.5,NNE,5.8,-,N/A,,Clear,30,2013-05-28 11:15:00
6:35 AM,59.0,59.0,100,29.74,2.0,NE,3.5,-,N/A,,Scattered Clouds,50,2013-05-28 11:35:00
6:55 AM,59.0,59.0,100,29.73,3.0,East,5.8,-,N/A,,Partly Cloudy,90,2013-05-28 11:55:00
7:15 AM,60.8,59.0,94,29.72,5.0,East,4.6,-,N/A,,Clear,100,2013-05-28 12:15:00
7:35 AM,62.6,59.0,88,29.72,7.0,East,5.8,-,N/A,,Clear,100,2013-05-28 12:35:00
7:55 AM,62.6,59.0,88,29.72,8.0,East,5.8,-,N/A,,Clear,100,2013-05-28 12:55:00
8:15 AM,64.4,60.8,88,29.72,9.0,East,5.8,-,N/A,,Clear,100,2013-05-28 13:15:00
8:35 AM,64.4,62.6,94,29.71,9.0,East,5.8,-,N/A,,Clear,80,2013-05-28 13:35:00
8:55 AM,66.2,62.6,88,29.70,10.0,East,8.1,-,N/A,,Clear,90,2013-05-28 13:55:00
9:15 AM,66.2,62.6,88,29.69,10.0,ENE,8.1,-,N/A,,Clear,70,2013-05-28 14:15:00
9:35 AM,66.2,62.6,88,29.69,10.0,East,5.8,-,N/A,,Clear,80,2013-05-28 14:35:00
9:55 AM,68.0,62.6,83,29.70,10.0,East,3.5,-,N/A,,Clear,90,2013-05-28 14:55:00
10:15 AM,68.0,64.4,88,29.71,9.0,SE,4.6,-,N/A,,Scattered Clouds,130,2013-05-28 15:15:00
10:35 AM,68.0,64.4,88,29.71,10.0,SE,3.5,-,N/A,,Partly Cloudy,130,2013-05-28 15:35:00
10:55 AM,69.8,62.6,78,29.72,10.0,ESE,4.6,-,N/A,,Partly Cloudy,120,2013-05-28 15:55:00
11:15 AM,69.8,64.4,83,29.73,10.0,NE,3.5,-,0.03,Thunderstorm,Partly Cloudy,50,2013-05-28 16:15:00
11:35 AM,71.6,64.4,78,29.72,-9999.0,NE,4.6,-,0.03,,Scattered Clouds,50,2013-05-28 16:35:00
11:55 AM,71.6,66.2,83,29.71,10.0,NE,6.9,-,0.03,,Partly Cloudy,40,2013-05-28 16:55:00
12:15 PM,71.6,64.4,78,29.73,10.0,ENE,5.8,-,N/A,,Scattered Clouds,60,2013-05-28 17:15:00
12:35 PM,71.6,62.6,73,29.73,10.0,East,8.1,-,N/A,,Unknown,90,2013-05-28 17:35:00
12:55 PM,73.4,64.4,73,29.73,10.0,East,5.8,-,N/A,,Mostly Cloudy,90,2013-05-28 17:55:00
1:15 PM,73.4,64.4,73,29.73,10.0,ENE,9.2,-,N/A,,Scattered Clouds,70,2013-05-28 18:15:00
1:35 PM,73.4,62.6,69,29.73,10.0,ENE,5.8,-,N/A,,Partly Cloudy,60,2013-05-28 18:35:00
1:55 PM,75.2,64.4,69,29.74,10.0,East,5.8,-,N/A,,Mostly Cloudy,80,2013-05-28 18:55:00
2:15 PM,75.2,64.4,69,29.76,10.0,East,6.9,-,N/A,,Mostly Cloudy,100,2013-05-28 19:15:00
2:35 PM,75.2,62.6,65,29.75,10.0,ESE,3.5,-,N/A,,Scattered Clouds,110,2013-05-28 19:35:00
2:55 PM,75.2,64.4,69,29.74,10.0,East,10.4,-,N/A,,Clear,100,2013-05-28 19:55:00
3:15 PM,75.2,64.4,69,29.73,10.0,ENE,9.2,-,N/A,,Clear,60,2013-05-28 20:15:00
3:35 PM,75.2,64.4,69,29.71,10.0,ENE,12.7,-,N/A,,Clear,70,2013-05-28 20:35:00
3:55 PM,77.0,64.4,65,29.71,10.0,ENE,15.0,-,N/A,,Clear,60,2013-05-28 20:55:00
4:15 PM,77.0,66.2,69,29.70,9.0,NE,13.8,-,N/A,,Clear,50,2013-05-28 21:15:00
4:35 PM,77.0,62.6,61,29.69,10.0,East,11.5,-,N/A,,Clear,80,2013-05-28 21:35:00
4:55 PM,77.0,64.4,65,29.68,10.0,NE,13.8,-,N/A,,Clear,50,2013-05-28 21:55:00
5:15 PM,77.0,64.4,65,29.68,10.0,ENE,13.8,-,N/A,,Clear,70,2013-05-28 22:15:00
5:35 PM,77.0,64.4,65,29.67,10.0,ENE,12.7,-,N/A,,Clear,60,2013-05-28 22:35:00
5:55 PM,77.0,64.4,65,29.67,10.0,East,12.7,-,N/A,,Clear,80,2013-05-28 22:55:00
6:15 PM,77.0,64.4,65,29.66,10.0,ENE,13.8,18.4,N/A,,Clear,60,2013-05-28 23:15:00
6:35 PM,77.0,64.4,65,29.65,10.0,East,13.8,-,N/A,,Clear,80,2013-05-28 23:35:00
6:55 PM,77.0,64.4,65,29.64,10.0,East,15.0,-,N/A,,Clear,90,2013-05-28 23:55:00
7:15 PM,75.2,64.4,69,29.65,10.0,East,12.7,-,N/A,,Partly Cloudy,80,2013-05-29 00:15:00
7:35 PM,75.2,64.4,69,29.65,10.0,East,17.3,-,N/A,,Partly Cloudy,80,2013-05-29 00:35:00
7:55 PM,73.4,64.4,73,29.64,10.0,East,13.8,-,N/A,,Partly Cloudy,80,2013-05-29 00:55:00
8:15 PM,73.4,64.4,73,29.66,10.0,East,13.8,-,N/A,,Clear,90,2013-05-29 01:15:00
8:35 PM,73.4,64.4,73,29.67,10.0,East,13.8,-,N/A,,Scattered Clouds,100,2013-05-29 01:35:00
8:55 PM,73.4,64.4,73,29.68,10.0,ESE,16.1,19.6,N/A,,Mostly Cloudy,110,2013-05-29 01:55:00
9:15 PM,73.4,62.6,69,29.68,10.0,ESE,15.0,24.2,N/A,Rain,Light Rain,120,2013-05-29 02:15:00
9:35 PM,71.6,64.4,78,29.69,10.0,SE,12.7,-,N/A,Rain,Light Rain,130,2013-05-29 02:35:00
9:55 PM,69.8,64.4,83,29.69,10.0,SE,10.4,-,N/A,Rain,Light Rain,140,2013-05-29 02:55:00
10:15 PM,68.0,62.6,83,29.70,10.0,ESE,8.1,-,N/A,Rain,Light Rain,110,2013-05-29 03:15:00
10:35 PM,66.2,60.8,83,29.70,10.0,SE,9.2,-,N/A,,Partly Cloudy,130,2013-05-29 03:35:00
10:55 PM,64.4,59.0,83,29.69,10.0,SE,11.5,-,N/A,Rain,Light Rain,140,2013-05-29 03:55:00
11:15 PM,64.4,59.0,83,29.69,10.0,SE,10.4,-,N/A,,Clear,140,2013-05-29 04:15:00
11:35 PM,64.4,59.0,83,29.66,10.0,SE,11.5,-,N/A,Rain,Light Rain,140,2013-05-29 04:35:00
11:55 PM,64.4,60.8,88,29.68,10.0,SSE,10.4,-,N/A,Rain,Light Rain,150,2013-05-29 04:55:00